Time,TemperatureF,DewpointF,PressureIn,WindDirection,WindDirectionDegrees,WindSpeedMPH,WindSpeedGustMPH,Humidity,HourlyPrecipIn,Conditions,Clouds,dailyrainin,SoftwareType,DateUTC
2013-12-15 00:02:00,66.3,66.3,29.72,SW,224,3.0,4.0,100,0.00,,,0.00,Wunderground v.1.15,2013-12-15 05:02:00,
2013-12-15 00:04:00,66.3,66.3,29.72,SW,223,3.0,4.0,100,0.00,,,0.00,Wunderground v.1.15,2013-12-15 05:04:00,
2013-12-15 00:06:00,66.1,66.1,29.72,SSW,193,3.0,4.0,100,0.00,,,0.00,Wunderground v.1.15,2013-12-15 05:06:00,
2013-12-15 00:08:00,66.1,66.1,29.72,WSW,247,3.0,4.0,100,0.00,,,0.00,Wunderground v.1.15,2013-12-15 05:08:00,
2013-12-15 00:12:00,66.0,66.0,29.72,SW,223,3.0,3.0,100,0.00,,,0.00,Wunderground v.1.15,2013-12-15 05:12:00,
2013-12-15 00:18:00,65.8,65.8,29.71,SW,229,3.0,10.0,100,0.00,,,0.00,Wunderground v.1.15,2013-12-15 05:18:00,
2013-12-15 00:24:00,65.6,65.6,29.71,West,261,6.0,6.0,100,0.00,,,0.00,Wunderground v.1.15,2013-12-15 05:24:00,
2013-12-15 00:30:00,65.8,65.8,29.71,WSW,256,6.0,12.0,100,0.00,,,0.00,Wunderground v.1.15,2013-12-15 05:30:00,
2013-12-15 00:36:00,65.8,65.8,29.71,WSW,243,6.0,12.0,100,0.00,,,0.00,Wunderground v.1.15,2013-12-15 05:36:00,
2013-12-15 00:42:00,66.0,66.0,29.71,WSW,257,5.0,6.0,100,0.00,,,0.00,Wunderground v.1.15,2013-12-15 05:42:00,
2013-12-15 00:48:00,66.0,66.0,29.70,SW,223,5.0,7.0,100,0.00,,,0.00,Wunderground v.1.15,2013-12-15 05:48:00,
2013-12-15 00:54:00,66.0,66.0,29.70,West,261,5.0,9.0,100,0.00,,,0.00,Wunderground v.1.15,2013-12-15 05:54:00,
2013-12-15 01:00:00,66.0,66.0,29.70,West,271,4.0,4.0,100,0.00,,,0.00,Wunderground v.1.15,2013-12-15 06:00:00,
2013-12-15 01:06:00,66.0,66.0,29.70,West,268,4.0,7.0,100,0.00,,,0.00,Wunderground v.1.15,2013-12-15 06:06:00,
2013-12-15 01:12:00,66.0,66.0,29.70,West,272,4.0,5.0,100,0.00,,,0.00,Wunderground v.1.15,2013-12-15 06:12:00,
2013-12-15 01:18:00,66.0,66.0,29.70,West,271,4.0,6.0,100,0.00,,,0.00,Wunderground v.1.15,2013-12-15 06:18:00,
2013-12-15 01:24:00,66.0,66.0,29.70,West,280,5.0,5.0,100,0.00,,,0.00,Wunderground v.1.15,2013-12-15 06:24:00,
2013-12-15 01:30:00,66.1,66.1,29.71,WNW,287,6.0,6.0,100,0.00,,,0.00,Wunderground v.1.15,2013-12-15 06:30:00,
2013-12-15 01:36:00,66.3,66.3,29.71,WNW,282,6.0,7.0,100,0.00,,,0.00,Wunderground v.1.15,2013-12-15 06:36:00,
2013-12-15 01:42:00,66.3,66.3,29.71,WSW,237,5.0,7.0,100,0.00,,,0.00,Wunderground v.1.15,2013-12-15 06:42:00,
2013-12-15 01:48:00,66.1,66.1,29.71,West,278,5.0,7.0,100,0.00,,,0.00,Wunderground v.1.15,2013-12-15 06:48:00,
2013-12-15 01:54:00,66.1,66.1,29.71,SW,232,5.0,11.0,100,0.00,,,0.00,Wunderground v.1.15,2013-12-15 06:54:00,
2013-12-15 02:00:00,66.1,66.1,29.71,WSW,247,5.0,5.0,100,0.00,,,0.00,Wunderground v.1.15,2013-12-15 07:00:00,
2013-12-15 02:06:00,66.1,66.1,29.71,West,272,4.0,7.0,100,0.00,,,0.00,Wunderground v.1.15,2013-12-15 07:06:00,
2013-12-15 02:12:00,66.1,66.1,29.71,WNW,301,5.0,6.0,100,0.00,,,0.00,Wunderground v.1.15,2013-12-15 07:12:00,
2013-12-15 02:18:00,66.1,66.1,29.71,WNW,292,6.0,7.0,100,0.00,,,0.00,Wunderground v.1.15,2013-12-15 07:18:00,
2013-12-15 02:24:00,66.3,66.3,29.71,West,281,7.0,10.0,100,0.00,,,0.00,Wunderground v.1.15,2013-12-15 07:24:00,
2013-12-15 02:30:00,66.1,66.1,29.72,West,267,8.0,10.0,100,0.00,,,0.00,Wunderground v.1.15,2013-12-15 07:30:00,
2013-12-15 02:36:00,66.1,66.1,29.72,West,275,8.0,12.0,100,0.00,,,0.00,Wunderground v.1.15,2013-12-15 07:36:00,
2013-12-15 02:42:00,66.1,66.1,29.72,West,277,10.0,13.0,100,0.00,,,0.00,Wunderground v.1.15,2013-12-15 07:42:00,
2013-12-15 02:48:00,66.1,66.1,29.72,West,278,11.0,14.0,100,0.00,,,0.00,Wunderground v.1.15,2013-12-15 07:48:00,
2013-12-15 02:54:00,65.8,65.8,29.72,WNW,294,12.0,16.0,100,0.00,,,0.00,Wunderground v.1.15,2013-12-15 07:54:00,
2013-12-15 03:00:00,65.3,65.3,29.72,NW,313,14.0,17.0,100,0.00,,,0.00,Wunderground v.1.15,2013-12-15 08:00:00,
2013-12-15 03:06:00,64.3,64.3,29.72,NW,316,15.0,17.0,100,0.00,,,0.00,Wunderground v.1.15,2013-12-15 08:06:00,
2013-12-15 03:12:00,64.2,64.2,29.72,NW,309,14.0,18.0,100,0.00,,,0.00,Wunderground v.1.15,2013-12-15 08:12:00,
2013-12-15 03:18:00,64.2,64.2,29.71,NW,311,14.0,24.0,100,0.00,,,0.00,Wunderground v.1.15,2013-12-15 08:18:00,
2013-12-15 03:24:00,64.2,64.2,29.71,NW,318,14.0,15.0,100,0.00,,,0.00,Wunderground v.1.15,2013-12-15 08:24:00,
2013-12-15 03:30:00,64.0,64.0,29.72,NW,316,9.0,9.0,100,0.00,,,0.00,Wunderground v.1.15,2013-12-15 08:30:00,
2013-12-15 03:36:00,64.0,64.0,29.72,NW,323,8.0,14.0,100,0.00,,,0.00,Wunderground v.1.15,2013-12-15 08:36:00,
2013-12-15 03:42:00,64.0,64.0,29.72,NNW,330,7.0,7.0,100,0.00,,,0.00,Wunderground v.1.15,2013-12-15 08:42:00,
2013-12-15 03:48:00,64.0,64.0,29.72,NW,315,8.0,18.0,100,0.00,,,0.00,Wunderground v.1.15,2013-12-15 08:48:00,
2013-12-15 03:54:00,63.9,63.0,29.72,NW,318,14.0,18.0,97,0.00,,,0.00,Wunderground v.1.15,2013-12-15 08:54:00,
2013-12-15 04:00:00,63.7,62.8,29.71,NW,316,17.0,17.0,97,0.00,,,0.00,Wunderground v.1.15,2013-12-15 09:00:00,
2013-12-15 04:06:00,63.4,62.2,29.71,NW,313,14.0,18.0,96,0.00,,,0.00,Wunderground v.1.15,2013-12-15 09:06:00,
2013-12-15 04:12:00,63.2,61.7,29.71,NW,312,9.0,10.0,95,0.00,,,0.00,Wunderground v.1.15,2013-12-15 09:12:00,
2013-12-15 04:18:00,62.9,61.4,29.72,NW,319,7.0,10.0,95,0.00,,,0.00,Wunderground v.1.15,2013-12-15 09:18:00,
2013-12-15 04:24:00,62.9,61.4,29.72,NW,316,7.0,8.0,95,0.00,,,0.00,Wunderground v.1.15,2013-12-15 09:24:00,
2013-12-15 04:30:00,62.6,61.1,29.71,NNW,332,6.0,6.0,95,0.00,,,0.00,Wunderground v.1.15,2013-12-15 09:30:00,
2013-12-15 04:36:00,62.4,60.7,29.71,NW,308,6.0,16.0,94,0.00,,,0.00,Wunderground v.1.15,2013-12-15 09:36:00,
2013-12-15 04:42:00,62.6,60.5,29.71,NW,319,8.0,8.0,93,0.00,,,0.00,Wunderground v.1.15,2013-12-15 09:42:00,
2013-12-15 04:48:00,62.6,60.5,29.72,NW,306,8.0,14.0,93,0.00,,,0.00,Wunderground v.1.15,2013-12-15 09:48:00,
2013-12-15 04:54:00,62.4,60.3,29.72,NW,306,10.0,16.0,93,0.00,,,0.00,Wunderground v.1.15,2013-12-15 09:54:00,
2013-12-15 05:00:00,62.0,60.3,29.73,NW,308,7.0,7.0,94,0.00,,,0.00,Wunderground v.1.15,2013-12-15 10:00:00,
2013-12-15 05:06:00,61.8,60.6,29.73,WNW,302,4.0,7.0,96,0.00,,,0.00,Wunderground v.1.15,2013-12-15 10:06:00,
2013-12-15 05:12:00,61.8,60.6,29.73,WNW,301,4.0,4.0,96,0.00,,,0.00,Wunderground v.1.15,2013-12-15 10:12:00,
2013-12-15 05:18:00,61.6,60.4,29.74,WNW,295,5.0,7.0,96,0.00,,,0.00,Wunderground v.1.15,2013-12-15 10:18:00,
2013-12-15 05:24:00,61.8,60.6,29.74,WNW,302,5.0,5.0,96,0.00,,,0.00,Wunderground v.1.15,2013-12-15 10:24:00,
2013-12-15 05:30:00,62.0,60.3,29.75,WNW,295,5.0,5.0,94,0.00,,,0.00,Wunderground v.1.15,2013-12-15 10:30:00,
2013-12-15 05:36:00,62.0,60.0,29.75,WNW,294,7.0,11.0,93,0.00,,,0.00,Wunderground v.1.15,2013-12-15 10:36:00,
2013-12-15 05:42:00,61.8,60.1,29.75,WNW,292,5.0,11.0,94,0.00,,,0.00,Wunderground v.1.15,2013-12-15 10:42:00,
2013-12-15 05:48:00,61.3,59.9,29.76,NW,312,7.0,11.0,95,0.00,,,0.01,Wunderground v.1.15,2013-12-15 10:48:00,
2013-12-15 05:54:00,60.9,60.0,29.76,West,275,5.0,7.0,97,0.00,,,0.01,Wunderground v.1.15,2013-12-15 10:54:00,
2013-12-15 06:00:00,60.4,60.1,29.76,West,268,3.0,3.0,99,0.00,,,0.01,Wunderground v.1.15,2013-12-15 11:00:00,
2013-12-15 06:06:00,60.1,60.1,29.76,West,268,4.0,4.0,100,0.00,,,0.02,Wunderground v.1.15,2013-12-15 11:06:00,
2013-12-15 06:12:00,59.9,59.9,29.76,WSW,257,5.0,7.0,100,0.00,,,0.02,Wunderground v.1.15,2013-12-15 11:12:00,
2013-12-15 06:18:00,59.8,59.8,29.76,SW,232,5.0,8.0,100,0.00,,,0.02,Wunderground v.1.15,2013-12-15 11:18:00,
2013-12-15 06:24:00,59.9,59.9,29.76,SW,215,4.0,5.0,100,0.00,,,0.02,Wunderground v.1.15,2013-12-15 11:24:00,
2013-12-15 06:30:00,59.8,59.8,29.76,SW,226,3.0,3.0,100,0.00,,,0.02,Wunderground v.1.15,2013-12-15 11:30:00,
2013-12-15 06:36:00,59.6,59.6,29.76,WSW,247,3.0,3.0,100,0.00,,,0.02,Wunderground v.1.15,2013-12-15 11:36:00,
2013-12-15 06:42:00,59.5,59.5,29.76,WNW,282,4.0,6.0,100,0.00,,,0.02,Wunderground v.1.15,2013-12-15 11:42:00,
2013-12-15 06:48:00,59.3,59.3,29.76,WNW,292,5.0,6.0,100,0.00,,,0.02,Wunderground v.1.15,2013-12-15 11:48:00,
2013-12-15 06:54:00,59.2,59.2,29.76,WNW,292,6.0,8.0,100,0.00,,,0.03,Wunderground v.1.15,2013-12-15 11:54:00,
2013-12-15 07:00:00,59.2,59.2,29.77,WNW,292,6.0,7.0,100,0.00,,,0.03,Wunderground v.1.15,2013-12-15 12:00:00,
2013-12-15 07:06:00,59.2,59.2,29.77,WNW,299,6.0,7.0,100,0.00,,,0.03,Wunderground v.1.15,2013-12-15 12:06:00,
2013-12-15 07:12:00,59.2,59.2,29.77,WNW,288,7.0,9.0,100,0.00,,,0.03,Wunderground v.1.15,2013-12-15 12:12:00,
2013-12-15 07:18:00,59.3,59.3,29.78,West,260,8.0,12.0,100,0.00,,,0.03,Wunderground v.1.15,2013-12-15 12:18:00,
2013-12-15 07:24:00,59.3,59.3,29.78,West,274,9.0,9.0,100,0.00,,,0.04,Wunderground v.1.15,2013-12-15 12:24:00,
2013-12-15 07:30:00,59.3,59.3,29.78,West,275,8.0,8.0,100,0.00,,,0.04,Wunderground v.1.15,2013-12-15 12:30:00,
2013-12-15 07:36:00,59.3,59.3,29.78,West,281,4.0,8.0,100,0.00,,,0.04,Wunderground v.1.15,2013-12-15 12:36:00,
2013-12-15 07:42:00,59.3,59.3,29.78,WSW,244,3.0,3.0,100,0.00,,,0.04,Wunderground v.1.15,2013-12-15 12:42:00,
2013-12-15 07:48:00,59.2,59.2,29.76,West,265,4.0,7.0,100,0.00,,,0.04,Wunderground v.1.15,2013-12-15 12:48:00,
2013-12-15 07:54:00,59.2,59.2,29.76,West,261,5.0,12.0,100,0.00,,,0.04,Wunderground v.1.15,2013-12-15 12:54:00,
2013-12-15 08:00:00,59.2,59.2,29.76,West,271,4.0,4.0,100,0.00,,,0.04,Wunderground v.1.15,2013-12-15 13:00:00,
2013-12-15 08:06:00,59.2,59.2,29.76,West,281,3.0,4.0,100,0.00,,,0.04,Wunderground v.1.15,2013-12-15 13:06:00,
2013-12-15 08:12:00,59.0,59.0,29.76,West,261,3.0,3.0,100,0.00,,,0.04,Wunderground v.1.15,2013-12-15 13:12:00,
2013-12-15 08:18:00,59.0,59.0,29.78,WNW,295,4.0,8.0,100,0.00,,,0.04,Wunderground v.1.15,2013-12-15 13:18:00,
2013-12-15 08:24:00,59.2,59.2,29.78,West,277,7.0,10.0,100,0.00,,,0.04,Wunderground v.1.15,2013-12-15 13:24:00,
2013-12-15 08:30:00,59.2,59.2,29.81,West,281,8.0,8.0,100,0.00,,,0.04,Wunderground v.1.15,2013-12-15 13:30:00,
2013-12-15 08:36:00,59.2,59.2,29.81,WNW,298,6.0,8.0,100,0.00,,,0.04,Wunderground v.1.15,2013-12-15 13:36:00,
2013-12-15 08:42:00,59.2,59.2,29.81,WNW,287,3.0,6.0,100,0.00,,,0.04,Wunderground v.1.15,2013-12-15 13:42:00,
2013-12-15 08:48:00,59.2,59.2,29.81,WNW,285,3.0,6.0,100,0.00,,,0.04,Wunderground v.1.15,2013-12-15 13:48:00,
2013-12-15 08:54:00,59.2,59.2,29.81,WNW,301,3.0,3.0,100,0.00,,,0.04,Wunderground v.1.15,2013-12-15 13:54:00,
2013-12-15 09:00:00,59.2,59.2,29.80,SW,236,3.0,3.0,100,0.00,,,0.04,Wunderground v.1.15,2013-12-15 14:00:00,
2013-12-15 09:06:00,59.2,59.2,29.80,WSW,254,2.0,7.0,100,0.00,,,0.04,Wunderground v.1.15,2013-12-15 14:06:00,
2013-12-15 09:12:00,59.2,59.2,29.80,WNW,287,2.0,3.0,100,0.00,,,0.04,Wunderground v.1.15,2013-12-15 14:12:00,
2013-12-15 09:18:00,59.0,59.0,29.82,West,277,3.0,3.0,100,0.00,,,0.04,Wunderground v.1.15,2013-12-15 14:18:00,
2013-12-15 09:24:00,59.0,59.0,29.82,SW,226,2.0,3.0,100,0.00,,,0.04,Wunderground v.1.15,2013-12-15 14:24:00,
2013-12-15 09:30:00,58.9,58.9,29.84,West,281,3.0,7.0,100,0.00,,,0.05,Wunderground v.1.15,2013-12-15 14:30:00,
2013-12-15 09:36:00,58.9,58.9,29.84,West,275,3.0,7.0,100,0.00,,,0.05,Wunderground v.1.15,2013-12-15 14:36:00,
2013-12-15 09:42:00,58.9,58.9,29.84,WNW,284,4.0,6.0,100,0.00,,,0.05,Wunderground v.1.15,2013-12-15 14:42:00,
2013-12-15 09:48:00,58.9,58.9,29.84,West,281,4.0,6.0,100,0.00,,,0.05,Wunderground v.1.15,2013-12-15 14:48:00,
2013-12-15 09:54:00,58.9,58.9,29.84,WNW,288,3.0,5.0,100,0.00,,,0.05,Wunderground v.1.15,2013-12-15 14:54:00,
2013-12-15 10:00:00,58.9,58.9,29.81,WNW,299,3.0,3.0,100,0.00,,,0.05,Wunderground v.1.15,2013-12-15 15:00:00,
2013-12-15 10:06:00,59.0,59.0,29.81,WSW,253,3.0,5.0,100,0.00,,,0.05,Wunderground v.1.15,2013-12-15 15:06:00,
2013-12-15 10:12:00,59.2,59.2,29.81,WSW,257,3.0,3.0,100,0.00,,,0.05,Wunderground v.1.15,2013-12-15 15:12:00,
2013-12-15 10:18:00,59.3,59.3,29.82,West,270,3.0,3.0,100,0.00,,,0.05,Wunderground v.1.15,2013-12-15 15:18:00,
2013-12-15 10:24:00,59.5,59.5,29.82,WNW,292,3.0,4.0,100,0.00,,,0.05,Wunderground v.1.15,2013-12-15 15:24:00,
2013-12-15 10:30:00,59.6,59.6,29.83,WNW,298,3.0,3.0,100,0.00,,,0.05,Wunderground v.1.15,2013-12-15 15:30:00,
2013-12-15 10:36:00,59.6,59.6,29.83,WNW,282,3.0,3.0,100,0.00,,,0.05,Wunderground v.1.15,2013-12-15 15:36:00,
2013-12-15 10:42:00,59.6,59.6,29.83,WNW,285,4.0,4.0,100,0.00,,,0.05,Wunderground v.1.15,2013-12-15 15:42:00,
2013-12-15 10:48:00,59.8,59.8,29.84,West,275,4.0,5.0,100,0.00,,,0.05,Wunderground v.1.15,2013-12-15 15:48:00,
2013-12-15 10:54:00,59.8,59.8,29.84,West,270,4.0,5.0,100,0.00,,,0.05,Wunderground v.1.15,2013-12-15 15:54:00,
2013-12-15 11:00:00,59.8,59.8,29.84,WNW,295,4.0,11.0,100,0.00,,,0.05,Wunderground v.1.15,2013-12-15 16:00:00,
2013-12-15 11:06:00,59.9,59.9,29.84,WNW,295,4.0,11.0,100,0.00,,,0.05,Wunderground v.1.15,2013-12-15 16:06:00,
2013-12-15 11:12:00,59.9,59.9,29.84,WNW,289,4.0,4.0,100,0.00,,,0.05,Wunderground v.1.15,2013-12-15 16:12:00,
2013-12-15 11:18:00,60.1,60.1,29.83,NW,304,4.0,8.0,100,0.00,,,0.05,Wunderground v.1.15,2013-12-15 16:18:00,
2013-12-15 11:24:00,60.2,60.2,29.83,WNW,294,4.0,4.0,100,0.00,,,0.05,Wunderground v.1.15,2013-12-15 16:24:00,
2013-12-15 11:30:00,60.1,60.1,29.83,WNW,299,4.0,10.0,100,0.00,,,0.05,Wunderground v.1.15,2013-12-15 16:30:00,
2013-12-15 11:36:00,60.1,59.8,29.83,NW,311,5.0,10.0,99,0.00,,,0.05,Wunderground v.1.15,2013-12-15 16:36:00,
2013-12-15 11:42:00,59.8,59.5,29.83,WNW,298,4.0,4.0,99,0.00,,,0.05,Wunderground v.1.15,2013-12-15 16:42:00,
2013-12-15 11:48:00,59.6,59.3,29.84,WNW,288,3.0,5.0,99,0.00,,,0.05,Wunderground v.1.15,2013-12-15 16:48:00,
2013-12-15 11:54:00,59.6,59.6,29.84,WNW,302,5.0,12.0,100,0.00,,,0.05,Wunderground v.1.15,2013-12-15 16:54:00,
2013-12-15 12:00:00,59.3,58.4,29.83,WNW,299,13.0,22.0,97,0.00,,,0.05,Wunderground v.1.15,2013-12-15 17:00:00,
2013-12-15 12:06:00,59.5,58.6,29.83,NW,304,18.0,22.0,97,0.00,,,0.05,Wunderground v.1.15,2013-12-15 17:06:00,
2013-12-15 12:12:00,59.6,58.7,29.83,NW,315,18.0,19.0,97,0.00,,,0.05,Wunderground v.1.15,2013-12-15 17:12:00,
2013-12-15 12:18:00,59.8,58.7,29.82,NW,315,16.0,19.0,96,0.00,,,0.05,Wunderground v.1.15,2013-12-15 17:18:00,
2013-12-15 12:24:00,59.6,58.2,29.82,NW,305,13.0,15.0,95,0.00,,,0.05,Wunderground v.1.15,2013-12-15 17:24:00,
2013-12-15 12:30:00,60.1,57.2,29.82,WNW,302,13.0,15.0,90,0.00,,,0.05,Wunderground v.1.15,2013-12-15 17:30:00,
2013-12-15 12:36:00,60.1,56.8,29.82,WNW,299,13.0,15.0,89,0.00,,,0.05,Wunderground v.1.15,2013-12-15 17:36:00,
2013-12-15 12:42:00,59.9,56.3,29.82,WNW,301,12.0,20.0,88,0.00,,,0.05,Wunderground v.1.15,2013-12-15 17:42:00,
2013-12-15 12:48:00,59.6,56.4,29.82,WNW,302,12.0,20.0,89,0.00,,,0.05,Wunderground v.1.15,2013-12-15 17:48:00,
2013-12-15 12:54:00,59.6,56.7,29.82,WNW,302,11.0,13.0,90,0.00,,,0.05,Wunderground v.1.15,2013-12-15 17:54:00,
2013-12-15 13:00:00,59.6,56.4,29.81,NW,305,8.0,8.0,89,0.00,,,0.05,Wunderground v.1.15,2013-12-15 18:00:00,
2013-12-15 13:06:00,59.6,56.0,29.81,NW,306,5.0,8.0,88,0.00,,,0.05,Wunderground v.1.15,2013-12-15 18:06:00,
2013-12-15 13:12:00,59.9,56.6,29.81,WNW,302,5.0,6.0,89,0.00,,,0.05,Wunderground v.1.15,2013-12-15 18:12:00,
2013-12-15 13:18:00,59.8,55.9,29.81,WNW,292,9.0,16.0,87,0.00,,,0.05,Wunderground v.1.15,2013-12-15 18:18:00,
2013-12-15 13:24:00,59.8,55.3,29.81,WNW,302,11.0,16.0,85,0.00,,,0.05,Wunderground v.1.15,2013-12-15 18:24:00,
2013-12-15 13:30:00,59.6,55.4,29.80,NW,311,8.0,8.0,86,0.00,,,0.05,Wunderground v.1.15,2013-12-15 18:30:00,
2013-12-15 13:36:00,59.8,55.0,29.80,NW,311,6.0,8.0,84,0.00,,,0.05,Wunderground v.1.15,2013-12-15 18:36:00,
2013-12-15 13:42:00,59.8,53.3,29.80,WNW,294,4.0,5.0,79,0.00,,,0.05,Wunderground v.1.15,2013-12-15 18:42:00,
2013-12-15 13:48:00,59.5,54.0,29.81,WNW,301,5.0,11.0,82,0.00,,,0.05,Wunderground v.1.15,2013-12-15 18:48:00,
2013-12-15 13:54:00,59.2,53.7,29.81,NW,315,8.0,8.0,82,0.00,,,0.05,Wunderground v.1.15,2013-12-15 18:54:00,
2013-12-15 14:00:00,59.2,53.7,29.81,NW,309,8.0,8.0,82,0.00,,,0.05,Wunderground v.1.15,2013-12-15 19:00:00,
2013-12-15 14:06:00,59.0,53.8,29.81,WNW,299,9.0,11.0,83,0.00,,,0.05,Wunderground v.1.15,2013-12-15 19:06:00,
2013-12-15 14:12:00,59.0,53.8,29.81,WNW,299,9.0,11.0,83,0.00,,,0.05,Wunderground v.1.15,2013-12-15 19:12:00,
2013-12-15 14:18:00,58.9,53.7,29.81,NW,304,8.0,11.0,83,0.00,,,0.05,Wunderground v.1.15,2013-12-15 19:18:00,
2013-12-15 14:24:00,58.7,54.5,29.81,NW,305,9.0,14.0,86,0.00,,,0.05,Wunderground v.1.15,2013-12-15 19:24:00,
2013-12-15 14:30:00,58.4,53.6,29.81,WNW,295,9.0,9.0,84,0.00,,,0.05,Wunderground v.1.15,2013-12-15 19:30:00,
2013-12-15 14:36:00,58.4,53.9,29.81,NW,305,7.0,12.0,85,0.00,,,0.05,Wunderground v.1.15,2013-12-15 19:36:00,
2013-12-15 14:42:00,58.3,54.1,29.81,NW,316,9.0,12.0,86,0.00,,,0.05,Wunderground v.1.15,2013-12-15 19:42:00,
2013-12-15 14:48:00,58.1,53.9,29.81,NW,305,9.0,12.0,86,0.00,,,0.05,Wunderground v.1.15,2013-12-15 19:48:00,
2013-12-15 14:54:00,58.1,54.2,29.81,NW,306,9.0,9.0,87,0.00,,,0.05,Wunderground v.1.15,2013-12-15 19:54:00,
2013-12-15 14:56:00,58.0,53.8,29.81,NW,316,8.0,9.0,86,0.00,,,0.05,Wunderground v.1.15,2013-12-15 19:56:00,
2013-12-15 15:02:00,57.8,53.3,29.81,NW,320,8.0,8.0,85,0.00,,,0.05,Wunderground v.1.15,2013-12-15 20:02:00,
2013-12-15 15:08:00,57.8,52.7,29.81,NW,308,8.0,11.0,83,0.00,,,0.05,Wunderground v.1.15,2013-12-15 20:08:00,
2013-12-15 15:14:00,57.8,52.3,29.82,NW,304,8.0,8.0,82,0.00,,,0.05,Wunderground v.1.15,2013-12-15 20:14:00,
2013-12-15 15:20:00,57.6,52.5,29.82,WNW,289,7.0,7.0,83,0.00,,,0.05,Wunderground v.1.15,2013-12-15 20:20:00,
2013-12-15 15:26:00,57.6,52.5,29.82,WNW,299,7.0,8.0,83,0.00,,,0.05,Wunderground v.1.15,2013-12-15 20:26:00,
2013-12-15 15:32:00,57.5,52.4,29.83,NW,312,7.0,7.0,83,0.00,,,0.05,Wunderground v.1.15,2013-12-15 20:32:00,
2013-12-15 15:38:00,57.3,51.9,29.83,NW,313,6.0,7.0,82,0.00,,,0.05,Wunderground v.1.15,2013-12-15 20:38:00,
2013-12-15 15:44:00,57.2,53.0,29.84,WNW,299,6.0,9.0,86,0.00,,,0.05,Wunderground v.1.15,2013-12-15 20:44:00,
2013-12-15 15:50:00,56.9,51.5,29.84,NW,306,7.0,7.0,82,0.00,,,0.05,Wunderground v.1.15,2013-12-15 20:50:00,
2013-12-15 15:56:00,56.7,51.9,29.84,WNW,292,6.0,7.0,84,0.00,,,0.05,Wunderground v.1.15,2013-12-15 20:56:00,
2013-12-15 16:02:00,56.7,51.9,29.85,WNW,288,6.0,6.0,84,0.00,,,0.05,Wunderground v.1.15,2013-12-15 21:02:00,
2013-12-15 16:08:00,56.6,51.5,29.85,NW,309,6.0,7.0,83,0.00,,,0.05,Wunderground v.1.15,2013-12-15 21:08:00,
2013-12-15 16:14:00,56.6,51.5,29.85,WNW,299,6.0,6.0,83,0.00,,,0.05,Wunderground v.1.15,2013-12-15 21:14:00,
2013-12-15 16:20:00,56.6,51.8,29.85,WNW,298,5.0,5.0,84,0.00,,,0.05,Wunderground v.1.15,2013-12-15 21:20:00,
2013-12-15 16:26:00,56.6,51.8,29.85,WNW,298,5.0,7.0,84,0.00,,,0.05,Wunderground v.1.15,2013-12-15 21:26:00,
2013-12-15 16:32:00,56.6,51.8,29.86,WNW,291,5.0,5.0,84,0.00,,,0.05,Wunderground v.1.15,2013-12-15 21:32:00,
2013-12-15 16:38:00,56.6,51.5,29.86,NW,305,4.0,5.0,83,0.00,,,0.05,Wunderground v.1.15,2013-12-15 21:38:00,
2013-12-15 16:44:00,56.9,51.8,29.86,WNW,291,5.0,5.0,83,0.00,,,0.05,Wunderground v.1.15,2013-12-15 21:44:00,
2013-12-15 16:50:00,56.6,51.8,29.86,WNW,299,5.0,10.0,84,0.00,,,0.05,Wunderground v.1.15,2013-12-15 21:50:00,
2013-12-15 16:56:00,56.6,51.2,29.86,NW,315,6.0,10.0,82,0.00,,,0.05,Wunderground v.1.15,2013-12-15 21:56:00,
2013-12-15 17:02:00,56.7,51.3,29.87,NW,304,6.0,7.0,82,0.00,,,0.05,Wunderground v.1.15,2013-12-15 22:02:00,
2013-12-15 17:08:00,56.7,51.6,29.87,NW,322,6.0,7.0,83,0.00,,,0.05,Wunderground v.1.15,2013-12-15 22:08:00,
2013-12-15 17:14:00,56.6,51.8,29.88,NW,315,7.0,7.0,84,0.00,,,0.05,Wunderground v.1.15,2013-12-15 22:14:00,
2013-12-15 17:20:00,56.5,50.7,29.88,WNW,301,7.0,10.0,81,0.00,,,0.05,Wunderground v.1.15,2013-12-15 22:20:00,
2013-12-15 17:26:00,56.5,51.4,29.88,NW,319,7.0,10.0,83,0.00,,,0.05,Wunderground v.1.15,2013-12-15 22:26:00,
2013-12-15 17:32:00,56.3,50.9,29.89,NW,312,6.0,6.0,82,0.00,,,0.05,Wunderground v.1.15,2013-12-15 22:32:00,
2013-12-15 17:38:00,56.3,51.2,29.89,NW,325,6.0,6.0,83,0.00,,,0.05,Wunderground v.1.15,2013-12-15 22:38:00,
2013-12-15 17:44:00,56.2,51.1,29.89,NW,313,5.0,6.0,83,0.00,,,0.05,Wunderground v.1.15,2013-12-15 22:44:00,
2013-12-15 17:50:00,56.0,50.6,29.89,NW,322,5.0,7.0,82,0.00,,,0.05,Wunderground v.1.15,2013-12-15 22:50:00,
2013-12-15 17:56:00,56.2,51.1,29.89,NNW,339,6.0,7.0,83,0.00,,,0.05,Wunderground v.1.15,2013-12-15 22:56:00,
2013-12-15 18:02:00,56.0,50.9,29.90,NNW,333,6.0,6.0,83,0.00,,,0.05,Wunderground v.1.15,2013-12-15 23:02:00,
2013-12-15 18:08:00,56.2,51.4,29.90,NW,326,6.0,8.0,84,0.00,,,0.05,Wunderground v.1.15,2013-12-15 23:08:00,
2013-12-15 18:14:00,55.9,51.1,29.91,NNW,335,7.0,8.0,84,0.00,,,0.05,Wunderground v.1.15,2013-12-15 23:14:00,
2013-12-15 18:20:00,55.7,50.3,29.91,NNW,347,7.0,8.0,82,0.00,,,0.05,Wunderground v.1.15,2013-12-15 23:20:00,
2013-12-15 18:26:00,55.6,49.9,29.91,NNW,332,7.0,9.0,81,0.00,,,0.05,Wunderground v.1.15,2013-12-15 23:26:00,
2013-12-15 18:32:00,55.4,49.7,29.92,NNW,339,7.0,8.0,81,0.00,,,0.05,Wunderground v.1.15,2013-12-15 23:32:00,
2013-12-15 18:38:00,55.3,49.9,29.92,NNW,329,7.0,8.0,82,0.00,,,0.05,Wunderground v.1.15,2013-12-15 23:38:00,
2013-12-15 18:44:00,55.3,50.2,29.93,NNW,342,6.0,7.0,83,0.00,,,0.05,Wunderground v.1.15,2013-12-15 23:44:00,
2013-12-15 18:50:00,55.0,49.3,29.93,NNW,333,6.0,6.0,81,0.00,,,0.05,Wunderground v.1.15,2013-12-15 23:50:00,
2013-12-15 18:56:00,54.8,49.1,29.93,NW,326,6.0,7.0,81,0.00,,,0.05,Wunderground v.1.15,2013-12-15 23:56:00,
2013-12-15 19:02:00,54.8,50.4,29.94,NW,319,6.0,7.0,85,0.00,,,0.05,Wunderground v.1.15,2013-12-16 00:02:00,
2013-12-15 19:08:00,54.7,50.0,29.94,NW,322,6.0,7.0,84,0.00,,,0.05,Wunderground v.1.15,2013-12-16 00:08:00,
2013-12-15 19:14:00,54.4,50.0,29.95,NW,322,6.0,7.0,85,0.00,,,0.05,Wunderground v.1.15,2013-12-16 00:14:00,
2013-12-15 19:20:00,54.2,50.1,29.95,NW,319,6.0,6.0,86,0.00,,,0.05,Wunderground v.1.15,2013-12-16 00:20:00,
2013-12-15 19:26:00,54.1,49.7,29.95,NW,313,6.0,8.0,85,0.00,,,0.05,Wunderground v.1.15,2013-12-16 00:26:00,
2013-12-15 19:32:00,53.9,49.8,29.95,WNW,302,6.0,7.0,86,0.00,,,0.05,Wunderground v.1.15,2013-12-16 00:32:00,
2013-12-15 19:38:00,53.9,49.5,29.95,NW,316,6.0,7.0,85,0.00,,,0.05,Wunderground v.1.15,2013-12-16 00:38:00,
2013-12-15 19:44:00,53.6,49.2,29.96,NW,318,6.0,6.0,85,0.00,,,0.05,Wunderground v.1.15,2013-12-16 00:44:00,
2013-12-15 19:50:00,53.5,49.1,29.96,NW,313,6.0,6.0,85,0.00,,,0.05,Wunderground v.1.15,2013-12-16 00:50:00,
2013-12-15 19:56:00,53.6,49.5,29.96,NW,311,7.0,7.0,86,0.00,,,0.05,Wunderground v.1.15,2013-12-16 00:56:00,
2013-12-15 20:02:00,53.5,49.7,29.96,NW,313,7.0,7.0,87,0.00,,,0.05,Wunderground v.1.15,2013-12-16 01:02:00,
2013-12-15 20:08:00,53.3,49.5,29.96,NW,306,6.0,7.0,87,0.00,,,0.05,Wunderground v.1.15,2013-12-16 01:08:00,
2013-12-15 20:14:00,53.2,49.1,29.97,NW,306,7.0,10.0,86,0.00,,,0.05,Wunderground v.1.15,2013-12-16 01:14:00,
2013-12-15 20:20:00,53.3,49.8,29.97,WNW,301,7.0,7.0,88,0.00,,,0.05,Wunderground v.1.15,2013-12-16 01:20:00,
2013-12-15 20:26:00,53.3,49.2,29.97,NW,306,8.0,11.0,86,0.00,,,0.05,Wunderground v.1.15,2013-12-16 01:26:00,
2013-12-15 20:32:00,53.2,49.1,29.98,NNW,342,8.0,8.0,86,0.00,,,0.05,Wunderground v.1.15,2013-12-16 01:32:00,
2013-12-15 20:38:00,53.1,49.3,29.98,NW,306,8.0,8.0,87,0.00,,,0.05,Wunderground v.1.15,2013-12-16 01:38:00,
2013-12-15 20:44:00,53.1,48.7,29.98,NW,312,8.0,9.0,85,0.00,,,0.05,Wunderground v.1.15,2013-12-16 01:44:00,
2013-12-15 20:50:00,52.9,49.1,29.98,NW,320,7.0,7.0,87,0.00,,,0.05,Wunderground v.1.15,2013-12-16 01:50:00,
2013-12-15 20:56:00,52.9,49.1,29.98,NW,315,7.0,8.0,87,0.00,,,0.05,Wunderground v.1.15,2013-12-16 01:56:00,
2013-12-15 21:02:00,52.8,48.7,29.99,NW,309,7.0,7.0,86,0.00,,,0.05,Wunderground v.1.15,2013-12-16 02:02:00,
2013-12-15 21:08:00,52.6,48.5,29.99,NW,309,6.0,7.0,86,0.00,,,0.05,Wunderground v.1.15,2013-12-16 02:08:00,
2013-12-15 21:14:00,52.6,49.1,29.99,NW,313,6.0,6.0,88,0.00,,,0.05,Wunderground v.1.15,2013-12-16 02:14:00,
2013-12-15 21:20:00,52.5,49.0,29.99,NW,308,5.0,6.0,88,0.00,,,0.05,Wunderground v.1.15,2013-12-16 02:20:00,
2013-12-15 21:26:00,52.2,48.8,29.99,WNW,302,5.0,6.0,88,0.00,,,0.05,Wunderground v.1.15,2013-12-16 02:26:00,
2013-12-15 21:32:00,52.2,49.4,29.99,WNW,302,5.0,6.0,90,0.00,,,0.05,Wunderground v.1.15,2013-12-16 02:32:00,
2013-12-15 21:38:00,52.2,49.4,29.99,NW,305,5.0,7.0,90,0.00,,,0.05,Wunderground v.1.15,2013-12-16 02:38:00,
2013-12-15 21:44:00,52.0,48.9,30.00,NW,309,6.0,6.0,89,0.00,,,0.05,Wunderground v.1.15,2013-12-16 02:44:00,
2013-12-15 21:50:00,52.2,49.1,30.00,NW,308,6.0,6.0,89,0.00,,,0.05,Wunderground v.1.15,2013-12-16 02:50:00,
2013-12-15 21:56:00,52.2,49.4,30.00,NW,315,6.0,7.0,90,0.00,,,0.05,Wunderground v.1.15,2013-12-16 02:56:00,
2013-12-15 22:02:00,52.2,49.4,30.00,NW,305,6.0,7.0,90,0.00,,,0.05,Wunderground v.1.15,2013-12-16 03:02:00,
2013-12-15 22:08:00,52.2,49.7,30.00,WNW,299,6.0,7.0,91,0.00,,,0.05,Wunderground v.1.15,2013-12-16 03:08:00,
2013-12-15 22:14:00,52.0,48.9,30.00,NW,311,7.0,7.0,89,0.00,,,0.05,Wunderground v.1.15,2013-12-16 03:14:00,
2013-12-15 22:20:00,52.0,49.2,30.00,NW,306,6.0,6.0,90,0.00,,,0.05,Wunderground v.1.15,2013-12-16 03:20:00,
2013-12-15 22:26:00,52.2,49.4,30.00,NW,322,6.0,6.0,90,0.00,,,0.05,Wunderground v.1.15,2013-12-16 03:26:00,
2013-12-15 22:32:00,52.2,49.4,30.01,NW,315,6.0,7.0,90,0.00,,,0.05,Wunderground v.1.15,2013-12-16 03:32:00,
2013-12-15 22:38:00,52.0,48.6,30.01,NW,319,6.0,8.0,88,0.00,,,0.05,Wunderground v.1.15,2013-12-16 03:38:00,
2013-12-15 22:44:00,52.2,48.8,30.02,NW,323,7.0,7.0,88,0.00,,,0.05,Wunderground v.1.15,2013-12-16 03:44:00,
2013-12-15 22:50:00,51.9,48.5,30.02,NNW,337,6.0,6.0,88,0.00,,,0.05,Wunderground v.1.15,2013-12-16 03:50:00,
2013-12-15 22:56:00,51.6,48.5,30.02,NW,316,6.0,6.0,89,0.00,,,0.05,Wunderground v.1.15,2013-12-16 03:56:00,
2013-12-15 23:02:00,51.3,48.5,30.02,NW,311,6.0,6.0,90,0.00,,,0.05,Wunderground v.1.15,2013-12-16 04:02:00,
2013-12-15 23:08:00,51.3,48.5,30.02,NW,313,6.0,7.0,90,0.00,,,0.05,Wunderground v.1.15,2013-12-16 04:08:00,
2013-12-15 23:14:00,51.1,48.6,30.03,NW,318,6.0,6.0,91,0.00,,,0.05,Wunderground v.1.15,2013-12-16 04:14:00,
2013-12-15 23:20:00,51.0,48.2,30.03,NW,313,5.0,5.0,90,0.00,,,0.05,Wunderground v.1.15,2013-12-16 04:20:00,
2013-12-15 23:26:00,50.7,47.6,30.03,NNW,329,5.0,6.0,89,0.00,,,0.05,Wunderground v.1.15,2013-12-16 04:26:00,
2013-12-15 23:32:00,50.7,47.9,30.04,NNW,328,5.0,6.0,90,0.00,,,0.05,Wunderground v.1.15,2013-12-16 04:32:00,
2013-12-15 23:38:00,50.4,47.9,30.04,NW,320,5.0,6.0,91,0.00,,,0.05,Wunderground v.1.15,2013-12-16 04:38:00,
2013-12-15 23:44:00,50.2,47.7,30.04,NW,313,5.0,5.0,91,0.00,,,0.05,Wunderground v.1.15,2013-12-16 04:44:00,
2013-12-15 23:50:00,49.9,47.4,30.04,NW,323,5.0,5.0,91,0.00,,,0.05,Wunderground v.1.15,2013-12-16 04:50:00,
2013-12-15 23:56:00,49.6,47.1,30.04,NW,319,5.0,8.0,91,0.00,,,0.05,Wunderground v.1.15,2013-12-16 04:56:00,